• In Russia
  • List of Countries
  • For 7 days
  • Water Temperature
  • Satellite Maps
  • Weather Map
  • Weather Widgets
  • user-avatar
    Login

    Hourly Weather Tirana

    Today, 27 July, Thursday

    Time Temperature Precipitation Wind Pressure Humidity
    00:00 +20°C° 0 mm 1 mps 747 mmHg 84%
    01:00 +19°C° 0 mm 2 mps 747 mmHg 85%
    02:00 +19°C° 0 mm 2 mps 747 mmHg 86%
    03:00 +18°C° 0 mm 2 mps 747 mmHg 86%
    04:00 +18°C° 0 mm 2 mps 747 mmHg 87%
    05:00 +20°C° 0.2 mm 2 mps 748 mmHg 80%
    06:00 +21°C° 0.2 mm 2 mps 748 mmHg 73%
    07:00 +25°C° 0 mm 2 mps 747 mmHg 67%
    08:00 +26°C° 0.1 mm 2 mps 748 mmHg 60%
    09:00 +27°C° 0.1 mm 3 mps 748 mmHg 52%
    10:00 +29°C° 0.1 mm 3 mps 748 mmHg 45%
    11:00 +29°C° 0 mm 4 mps 748 mmHg 43%
    12:00 +30°C° 0 mm 5 mps 748 mmHg 41%
    13:00 +30°C° 0 mm 6 mps 748 mmHg 39%
    14:00 +30°C° 0 mm 6 mps 748 mmHg 41%
    15:00 +30°C° 0 mm 6 mps 748 mmHg 42%
    16:00 +29°C° 0 mm 6 mps 748 mmHg 43%
    17:00 +27°C° 0 mm 5 mps 748 mmHg 50%
    18:00 +25°C° 0 mm 4 mps 749 mmHg 58%
    19:00 +23°C° 0 mm 4 mps 749 mmHg 66%
    20:00 +22°C° 0.1 mm 3 mps 749 mmHg 69%
    21:00 +21°C° 0.1 mm 3 mps 750 mmHg 72%
    22:00 +20°C° 0.1 mm 2 mps 750 mmHg 75%
    23:00 +20°C° 0.1 mm 2 mps 750 mmHg 75%

    Tomorrow, 28 July, Friday

    Time Temperature Precipitation Wind Pressure Humidity
    00:00 +20°C° 0.1 mm 2 mps 750 mmHg 75%
    01:00 +19°C° 0.1 mm 3 mps 751 mmHg 75%
    02:00 +19°C° 0 mm 2 mps 751 mmHg 75%
    03:00 +19°C° 0 mm 2 mps 751 mmHg 75%
    04:00 +19°C° 0 mm 2 mps 751 mmHg 75%
    05:00 +20°C° 0 mm 2 mps 751 mmHg 70%
    06:00 +23°C° 0 mm 2 mps 751 mmHg 64%
    07:00 +25°C° 0 mm 2 mps 751 mmHg 59%
    08:00 +27°C° 0 mm 2 mps 752 mmHg 51%
    09:00 +28°C° 0 mm 2 mps 752 mmHg 44%
    10:00 +30°C° 0 mm 2 mps 752 mmHg 36%
    11:00 +31°C° 0 mm 3 mps 752 mmHg 34%
    12:00 +33°C° 0 mm 4 mps 752 mmHg 32%
    13:00 +34°C° 0 mm 4 mps 752 mmHg 30%
    14:00 +33°C° 0 mm 4 mps 752 mmHg 31%
    15:00 +33°C° 0 mm 4 mps 752 mmHg 33%
    16:00 +32°C° 0 mm 4 mps 752 mmHg 34%
    17:00 +29°C° 0 mm 3 mps 752 mmHg 41%
    18:00 +27°C° 0 mm 3 mps 752 mmHg 49%
    19:00 +25°C° 0 mm 2 mps 753 mmHg 56%
    20:00 +24°C° 0 mm 1 mps 753 mmHg 57%
    21:00 +24°C° 0 mm 1 mps 754 mmHg 58%
    22:00 +23°C° 0 mm 1 mps 754 mmHg 59%
    23:00 +23°C° 0 mm 1 mps 754 mmHg 59%

    Day after tomorrow, 29 July, Saturday

    Time Temperature Precipitation Wind Pressure Humidity
    00:00 +23°C° 0 mm 1 mps 754 mmHg 58%
    01:00 +23°C° 0 mm 1 mps 755 mmHg 58%
    02:00 +22°C° 0 mm 1 mps 755 mmHg 58%
    03:00 +22°C° 0 mm 1 mps 755 mmHg 58%
    04:00 +21°C° 0 mm 2 mps 755 mmHg 58%
    05:00 +24°C° 0 mm 2 mps 755 mmHg 54%
    06:00 +26°C° 0 mm 2 mps 755 mmHg 49%
    07:00 +28°C° 0 mm 2 mps 755 mmHg 45%
    08:00 +31°C° 0 mm 2 mps 755 mmHg 40%
    09:00 +33°C° 0 mm 1 mps 756 mmHg 35%
    10:00 +35°C° 0 mm 1 mps 756 mmHg 30%
    11:00 +37°C° 0 mm 2 mps 755 mmHg 29%
    12:00 +37°C° 0 mm 3 mps 755 mmHg 28%
    13:00 +38°C° 0 mm 4 mps 755 mmHg 27%
    14:00 +37°C° 0 mm 4 mps 755 mmHg 29%
    15:00 +37°C° 0 mm 4 mps 755 mmHg 30%
    16:00 +36°C° 0 mm 4 mps 754 mmHg 32%
    17:00 +34°C° 0 mm 3 mps 754 mmHg 39%
    18:00 +30°C° 0 mm 2 mps 755 mmHg 47%
    19:00 +28°C° 0 mm 2 mps 755 mmHg 54%
    20:00 +27°C° 0 mm 1 mps 755 mmHg 55%
    21:00 +27°C° 0 mm 1 mps 755 mmHg 56%
    22:00 +26°C° 0 mm 1 mps 756 mmHg 57%
    23:00 +26°C° 0 mm 1 mps 756 mmHg 57%

    30 July, Sunday

    Time Temperature Precipitation Wind Pressure Humidity
    00:00 +26°C° 0 mm 1 mps 756 mmHg 56%
    01:00 +26°C° 0 mm 1 mps 756 mmHg 56%
    02:00 +25°C° 0 mm 1 mps 756 mmHg 56%
    03:00 +25°C° 0 mm 1 mps 755 mmHg 56%
    04:00 +25°C° 0 mm 1 mps 755 mmHg 56%
    05:00 +27°C° 0 mm 1 mps 755 mmHg 51%
    06:00 +29°C° 0 mm 1 mps 755 mmHg 47%
    07:00 +31°C° 0 mm 1 mps 755 mmHg 43%
    08:00 +33°C° 0 mm 1 mps 755 mmHg 38%
    09:00 +35°C° 0 mm 1 mps 755 mmHg 33%
    10:00 +37°C° 0 mm 1 mps 755 mmHg 28%
    11:00 +39°C° 0 mm 2 mps 755 mmHg 27%
    12:00 +39°C° 0 mm 3 mps 755 mmHg 27%
    13:00 +41°C° 0 mm 4 mps 754 mmHg 26%
    14:00 +40°C° 0 mm 4 mps 754 mmHg 28%
    15:00 +38°C° 0 mm 4 mps 754 mmHg 29%
    16:00 +38°C° 0 mm 4 mps 754 mmHg 31%
    17:00 +35°C° 0 mm 3 mps 754 mmHg 37%
    18:00 +32°C° 0 mm 2 mps 754 mmHg 44%
    19:00 +29°C° 0 mm 2 mps 754 mmHg 50%
    20:00 +28°C° 0 mm 2 mps 754 mmHg 52%
    21:00 +28°C° 0 mm 1 mps 754 mmHg 53%
    22:00 +27°C° 0 mm 1 mps 755 mmHg 54%
    23:00 +27°C° 0 mm 1 mps 755 mmHg 55%

    31 July, Monday

    Time Temperature Precipitation Wind Pressure Humidity
    00:00 +27°C° 0 mm 1 mps 754 mmHg 55%
    01:00 +27°C° 0 mm 1 mps 754 mmHg 55%
    02:00 +26°C° 0 mm 1 mps 754 mmHg 56%
    03:00 +26°C° 0 mm 1 mps 754 mmHg 56%
    04:00 +26°C° 0 mm 2 mps 754 mmHg 57%
    05:00 +28°C° 0 mm 1 mps 754 mmHg 53%
    06:00 +30°C° 0 mm 1 mps 754 mmHg 48%
    07:00 +32°C° 0 mm 1 mps 754 mmHg 44%
    08:00 +35°C° 0 mm 2 mps 754 mmHg 39%
    09:00 +37°C° 0 mm 2 mps 754 mmHg 35%
    10:00 +39°C° 0 mm 2 mps 754 mmHg 30%
    11:00 +39°C° 0 mm 3 mps 754 mmHg 30%
    12:00 +40°C° 0 mm 4 mps 753 mmHg 30%
    13:00 +41°C° 0 mm 5 mps 753 mmHg 30%
    14:00 +40°C° 0.2 mm 5 mps 753 mmHg 33%
    15:00 +39°C° 0.2 mm 5 mps 753 mmHg 36%
    16:00 +37°C° 0.2 mm 5 mps 752 mmHg 39%
    17:00 +35°C° 0.1 mm 4 mps 753 mmHg 43%
    18:00 +33°C° 0.1 mm 3 mps 753 mmHg 48%
    19:00 +30°C° 0.1 mm 3 mps 753 mmHg 53%
    20:00 +29°C° 0.1 mm 2 mps 753 mmHg 53%
    21:00 +29°C° 0.1 mm 2 mps 754 mmHg 54%
    22:00 +28°C° 0.1 mm 1 mps 754 mmHg 55%
    23:00 +28°C° 0.1 mm 1 mps 754 mmHg 54%

    1 August, Tuesday

    Time Temperature Precipitation Wind Pressure Humidity
    00:00 +27°C° 0.1 mm 2 mps 754 mmHg 53%
    01:00 +27°C° 0.1 mm 2 mps 754 mmHg 52%
    02:00 +27°C° 0 mm 2 mps 754 mmHg 52%
    03:00 +26°C° 0 mm 2 mps 754 mmHg 52%
    04:00 +26°C° 0 mm 2 mps 754 mmHg 51%
    05:00 +28°C° 0 mm 2 mps 754 mmHg 48%
    06:00 +29°C° 0 mm 2 mps 754 mmHg 45%
    07:00 +31°C° 0 mm 2 mps 754 mmHg 42%
    08:00 +34°C° 0 mm 2 mps 754 mmHg 36%
    09:00 +36°C° 0 mm 1 mps 754 mmHg 31%
    10:00 +39°C° 0 mm 1 mps 754 mmHg 26%
    11:00 +40°C° 0 mm 2 mps 754 mmHg 24%
    12:00 +40°C° 0 mm 3 mps 754 mmHg 22%
    13:00 +42°C° 0 mm 4 mps 753 mmHg 20%
    14:00 +42°C° 0 mm 4 mps 753 mmHg 21%
    15:00 +41°C° 0 mm 5 mps 753 mmHg 22%
    16:00 +41°C° 0 mm 5 mps 753 mmHg 23%
    17:00 +37°C° 0 mm 4 mps 753 mmHg 30%
    18:00 +34°C° 0 mm 4 mps 753 mmHg 37%
    19:00 +30°C° 0 mm 3 mps 753 mmHg 44%
    20:00 +30°C° 0 mm 3 mps 754 mmHg 44%
    21:00 +29°C° 0 mm 2 mps 754 mmHg 44%
    22:00 +28°C° 0 mm 2 mps 754 mmHg 44%
    23:00 +28°C° 0 mm 2 mps 754 mmHg 42%
    Show more